Weather History for New River MCAS, NC

Change the Weather History Date:

Wednesday, July 24, 2013

  Actual Average Record
Temperature  
Mean Temperature 82 °F -  
Max Temperature 91 °F 86 °F 96 °F (2011)
Min Temperature 75 °F 70 °F 61 °F (2007)
Cooling Degree Days 18    
Growing Degree Days 32 (Base 50)    
Moisture  
Dew Point 74 °F    
Average Humidity 80    
Maximum Humidity 94    
Minimum Humidity 52    
Precipitation  
Precipitation 0.00 in - - ()
Sea Level Pressure  
Sea Level Pressure 29.80 in    
Wind  
Wind Speed 6 mph (SW)    
Max Wind Speed 12 mph    
Max Gust Speed 18 mph    
Visibility 9 miles    
Events Thunderstorm    
Averages and records for this station are not official NWS values.
T = Trace of Precipitation, MM = Missing Value Source: NWS Daily Summary

Daily Weather History Graph

Daily Weather History Graph

Search for Another Location

Airport:

Trip Planner

Search our weather history database for the weather conditions in past years. The results will help you decide how hot, cold, wet, or windy it might be!

Date:

Astronomy

Jul. 24, 2013 Rise Set
Actual Time 6:14 AM EDT 8:18 PM EDT
Civil Twilight 5:45 AM EDT 8:46 PM EDT
Nautical Twilight 5:11 AM EDT 9:20 PM EDT
Astronomical Twilight 4:34 AM EDT 9:57 PM EDT
Moon 9:32 PM EDT (7/24) 8:23 AM EDT (7/24)
Length of Visible Light 15h 00m
Length of Day
14h 03m
Waning Gibbous, 95% of the Moon is Illuminated
Jul 24
Waning Gibbous
Jul 29
Last Quarter
Aug 6
New
Aug 14
First Quarter
Aug 20
Full

Hourly Weather History & Observations

Time (EDT) Temp. Heat Index Dew Point Humidity Pressure Visibility Wind Dir Wind Speed Gust Speed Precip Events Conditions
12:56 AM 77.0 °F - 73.0 °F 88% 29.81 in 9.0 mi SW 4.6 mph - N/A   Clear
1:56 AM 78.1 °F - 73.9 °F 87% 29.79 in 8.0 mi WSW 8.1 mph - N/A   Overcast
2:56 AM 75.9 °F - 73.9 °F 94% 29.78 in 7.0 mi WSW 6.9 mph - N/A   Partly Cloudy
4:56 AM 75.0 °F - 73.0 °F 94% 29.77 in 6.0 mi WSW 6.9 mph - N/A   Clear
5:56 AM 75.0 °F - 73.0 °F 94% 29.78 in 6.0 mi SW 6.9 mph - N/A   Clear
6:56 AM 75.0 °F - 73.0 °F 94% 29.79 in 5.0 mi WSW 4.6 mph - N/A   Clear
7:56 AM 75.9 °F - 73.0 °F 91% 29.81 in 5.0 mi WSW 9.2 mph - N/A   Mostly Cloudy
8:56 AM 81.0 °F 86.2 °F 73.9 °F 79% 29.81 in 10.0 mi West 5.8 mph - N/A   Mostly Cloudy
9:56 AM 84.0 °F 91.9 °F 75.0 °F 74% 29.81 in 8.0 mi West 4.6 mph - N/A   Clear
10:56 AM 87.1 °F 96.3 °F 75.0 °F 67% 29.81 in 10.0 mi WSW 4.6 mph - N/A   Clear
12:56 PM 90.0 °F 95.4 °F 70.0 °F 52% 29.81 in 10.0 mi WSW 6.9 mph - N/A   Clear
1:56 PM 89.1 °F 100.2 °F 75.9 °F 65% 29.80 in 9.0 mi South 9.2 mph - N/A   Partly Cloudy
2:56 PM 87.1 °F 96.3 °F 75.0 °F 67% 29.78 in 9.0 mi South 8.1 mph - N/A   Partly Cloudy
3:56 PM 84.9 °F 92.1 °F 73.9 °F 69% 29.79 in 10.0 mi SSW 11.5 mph - N/A   Clear
4:07 PM 84.2 °F 90.9 °F 73.4 °F 70% 29.77 in 10.0 mi SSW 11.5 mph 18.4 mph N/A   Mostly Cloudy
4:56 PM 84.9 °F 93.3 °F 75.0 °F 72% 29.78 in 9.0 mi SSW 10.4 mph - N/A   Mostly Cloudy
6:39 PM 82.4 °F 89.5 °F 75.2 °F 79% 29.77 in 9.0 mi South 5.8 mph - N/A Thunderstorm Thunderstorm
6:54 PM 82.4 °F 89.5 °F 75.2 °F 79% 29.77 in 9.0 mi South 4.6 mph - N/A   Clear
6:56 PM 82.0 °F 88.6 °F 75.0 °F 79% 29.78 in 9.0 mi South 4.6 mph - N/A   Clear
7:56 PM 80.1 °F 84.5 °F 73.9 °F 81% 29.80 in 10.0 mi South 3.5 mph - N/A   Clear
8:56 PM 78.1 °F - 73.9 °F 87% 29.82 in 10.0 mi South 6.9 mph - N/A   Clear
9:56 PM 77.0 °F - 73.9 °F 90% 29.83 in 10.0 mi SSW 5.8 mph - N/A   Clear
10:56 PM 77.0 °F - 73.9 °F 90% 29.84 in 10.0 mi Calm Calm - N/A   Clear
11:56 PM 77.0 °F - 73.9 °F 90% 29.85 in 10.0 mi Calm Calm - N/A   Clear